Вернуться в каталог

THORAD DELTA 1 DEB

АктивенSSO
NORAD 42623·DEBRIS·🇺🇸 United States

Запущен Nov 15, 1974 с Vandenberg Space Force Base

Loading…

Ближайшие Пролёты (ближайшие 24 часа)

TLE

СвежийSource: Space-Track

Эпоха: Sep 12, 2026, 06:07 UTC

1 42623U 74089GQ  26255.25531012 -.00000037  00000-0  62955-4 0  9996
2 42623 102.2194 269.5435 0072028  19.1664 341.2087 12.43800709243084

Отслеживайте THORAD DELTA 1 DEB в реальном времени с AllMySat

Download on the App Store